カタログに戻る

STARLINK-30294

運用中通信VLEO
NORAD 57651·PAYLOAD·🇺🇸 United States

打ち上げ Aug 17, 2023 から Cape Canaveral Space Force Station

Loading…

次のパス (今後24時間)

TLE

最新Source: CelesTrak SupGP

元期: Sep 15, 2026, 02:00 UTC

1 57651C 23122V   26258.08381944  .00012176  00000+0  44087-3 0  2584
2 57651  43.0028  91.5945 0002239 270.0779 165.9647 15.27582150    19

AllMySatでSTARLINK-30294をリアルタイム追跡

Download on the App Store